This is the latest recevied weather packets stored in our database for station/object IK3ZGB. If no packets are shown the sender has not sent any weather packets the latest 10 day(s).
| Time | Temp. | Humidity | Pressure | Rain* | Wind** | Luminosity | Snow |
|---|---|---|---|---|---|---|---|
| 1777534972 | 17.78° C | 53% | 1027.4 hPa | - | - | - | - |
| 1777534372 | 17.22° C | 52% | 1027.1 hPa | - | - | - | - |
| 1777533771 | 17.78° C | 54% | 1027.4 hPa | - | - | - | - |
| 1777533171 | 16.67° C | 55% | 1027.4 hPa | - | - | - | - |
| 1777532572 | 15.56° C | 57% | 1027.2 hPa | - | - | - | - |
| 1777531972 | 14.44° C | 58% | 1027 hPa | - | - | - | - |
| 1777531372 | 13.33° C | 60% | 1026.8 hPa | - | - | - | - |
| 1777530772 | 13.33° C | 60% | 1026.9 hPa | - | - | - | - |
| 1777530172 | 13.33° C | 61% | 1026.6 hPa | - | - | - | - |
| 1777529571 | 12.78° C | 60% | 1026.8 hPa | - | - | - | - |
| 1777528973 | 12.78° C | 60% | 1026.7 hPa | - | - | - | - |
| 1777528372 | 12.78° C | 62% | 1026.6 hPa | - | - | - | - |
| 1777527771 | 12.78° C | 62% | 1026.7 hPa | - | - | - | - |
| 1777527171 | 12.78° C | 62% | 1026.5 hPa | - | - | - | - |
| 1777526572 | 12.78° C | 63% | 1026.2 hPa | - | - | - | - |
| 1777525973 | 12.78° C | 62% | 1025.9 hPa | - | - | - | - |
| 1777525372 | 12.22° C | 62% | 1026.2 hPa | - | - | - | - |
| 1777524772 | 12.78° C | 62% | 1026.1 hPa | - | - | - | - |
| 1777524172 | 12.22° C | 63% | 1025.7 hPa | - | - | - | - |
| 1777523571 | 12.22° C | 63% | 1026 hPa | - | - | - | - |
| 1777522972 | 12.22° C | 63% | 1025.9 hPa | - | - | - | - |
| 1777522371 | 12.78° C | 62% | 1025.8 hPa | - | - | - | - |
| 1777521773 | 12.22° C | 62% | 1025.5 hPa | - | - | - | - |
| 1777521173 | 12.22° C | 62% | 1025.3 hPa | - | - | - | - |
| 1777520572 | 12.78° C | 61% | 1025.3 hPa | - | - | - | - |
* Rain since midnight (hover to see other rain measurements)
** Current wind speed in m/s (hover to see current wind gust speed)